Weather History for PAFE - March, 2013

Change the Weather History Date:

Sunday, March 10, 2013

  Actual Average Record
Temperature  
Mean Temperature 36 °F -  
Max Temperature 39 °F - - ()
Min Temperature 32 °F - - ()
Degree Days  
Heating Degree Days 30    
Moisture  
Dew Point 31 °F    
Average Humidity 84    
Maximum Humidity 93    
Minimum Humidity 70    
Precipitation  
Precipitation 0.04 in - - ()
Sea Level Pressure  
Sea Level Pressure 30.35 in    
Wind  
Wind Speed 7 mph (ESE)    
Max Wind Speed 12 mph    
Max Gust Speed -    
Visibility 10 miles    
Events      
T = Trace of Precipitation, MM = Missing Value Source: NWS Daily Summary

Daily Weather History Graph

Daily Weather History Graph

Search for Another Location

Airport or City:

Trip Planner

Search our weather history database for the weather conditions in past years. The results will help you decide how hot, cold, wet, or windy it might be!

Date:

Astronomy

Mar. 10, 2013 Rise Set
Actual Time 7:23 AM AKDT 6:49 PM AKDT
Civil Twilight 6:45 AM AKDT 7:27 PM AKDT
Nautical Twilight 6:01 AM AKDT 8:11 PM AKDT
Astronomical Twilight 5:15 AM AKDT 8:57 PM AKDT
Moon 6:34 AM AKDT (3/10) 6:04 PM AKDT (3/10)
Length of Visible Light 12h 41m
Length of Day
11h 25m
Waning Crescent, 1% of the Moon is Illuminated
Mar 10
Waning Crescent
Mar 11
New
Mar 19
First Quarter
Mar 27
Full
Apr 2
Last Quarter

Hourly Weather History & Observations

Time (AKDT) Temp. Windchill Dew Point Humidity Pressure Visibility Wind Dir Wind Speed Gust Speed Precip Events Conditions
12:16 AM 35.6 °F 29.9 °F 30.2 °F 81% 30.28 in 10.0 mi SE 6.9 mph - N/A   Mostly Cloudy
12:36 AM 35.6 °F 31.7 °F 30.2 °F 81% 30.29 in 10.0 mi SSE 4.6 mph - N/A   Scattered Clouds
12:56 AM 35.6 °F - 30.2 °F 81% 30.29 in 10.0 mi Calm Calm - N/A   Overcast
1:16 AM 35.6 °F 31.7 °F 30.2 °F 81% 30.30 in 10.0 mi SSE 4.6 mph - N/A   Mostly Cloudy
1:36 AM 33.8 °F 29.6 °F 28.4 °F 81% 30.30 in 10.0 mi SSE 4.6 mph - N/A   Scattered Clouds
1:56 AM 33.8 °F 29.6 °F 28.4 °F 81% 30.31 in 10.0 mi SE 4.6 mph - N/A   Clear
3:16 AM 33.8 °F 27.0 °F 28.4 °F 81% 30.31 in 10.0 mi SE 8.1 mph - N/A   Clear
4:36 AM 33.8 °F 27.7 °F 28.4 °F 81% 30.32 in 10.0 mi ESE 6.9 mph - N/A   Mostly Cloudy
4:56 AM 33.8 °F 28.6 °F 28.4 °F 81% 30.33 in 10.0 mi ESE 5.8 mph - N/A   Mostly Cloudy
5:16 AM 33.8 °F 28.6 °F 28.4 °F 81% 30.33 in 10.0 mi ESE 5.8 mph - N/A   Scattered Clouds
5:36 AM 32.0 °F 24.2 °F 28.4 °F 87% 30.33 in 10.0 mi East 9.2 mph - N/A   Clear
5:56 AM 33.8 °F 26.4 °F 28.4 °F 81% 30.34 in 10.0 mi East 9.2 mph - N/A   Clear
6:16 AM 33.8 °F 29.6 °F 28.4 °F 81% 30.35 in 10.0 mi East 4.6 mph - N/A   Mostly Cloudy
6:36 AM 33.8 °F 28.6 °F 28.4 °F 81% 30.34 in 10.0 mi ESE 5.8 mph - N/A   Scattered Clouds
6:56 AM 33.8 °F 27.7 °F 28.4 °F 81% 30.35 in 10.0 mi ESE 6.9 mph - N/A   Scattered Clouds
7:16 AM 33.8 °F 26.4 °F 28.4 °F 81% 30.35 in 10.0 mi East 9.2 mph - N/A   Mostly Cloudy
7:36 AM 33.8 °F 27.0 °F 28.4 °F 81% 30.35 in 10.0 mi ESE 8.1 mph - N/A   Scattered Clouds
7:56 AM 32.0 °F 25.6 °F 28.4 °F 87% 30.35 in 10.0 mi ESE 6.9 mph - N/A   Clear
8:16 AM 32.0 °F 25.6 °F 28.4 °F 87% 30.35 in 10.0 mi East 6.9 mph - N/A   Clear
8:36 AM 33.8 °F 27.0 °F 28.4 °F 81% 30.35 in 10.0 mi East 8.1 mph - N/A   Clear
8:56 AM 33.8 °F 26.4 °F 30.2 °F 87% 30.36 in 10.0 mi ESE 9.2 mph - N/A   Partly Cloudy
9:16 AM 33.8 °F 26.4 °F 30.2 °F 87% 30.36 in 10.0 mi East 9.2 mph - N/A   Mostly Cloudy
9:36 AM 33.8 °F 27.7 °F 30.2 °F 87% 30.36 in 10.0 mi ESE 6.9 mph - N/A   Mostly Cloudy
9:56 AM 33.8 °F 27.7 °F 30.2 °F 87% 30.36 in 10.0 mi East 6.9 mph - N/A   Mostly Cloudy
10:16 AM 33.8 °F 27.0 °F 30.2 °F 87% 30.36 in 10.0 mi ESE 8.1 mph - N/A   Mostly Cloudy
10:36 AM 35.6 °F 29.2 °F 30.2 °F 81% 30.36 in 10.0 mi ESE 8.1 mph - N/A   Scattered Clouds
10:56 AM 35.6 °F 28.6 °F 32.0 °F 87% 30.36 in 10.0 mi SE 9.2 mph - N/A   Clear
11:16 AM 37.4 °F 30.8 °F 32.0 °F 81% 30.36 in 10.0 mi SE 9.2 mph - N/A   Clear
11:36 AM 37.4 °F 31.4 °F 32.0 °F 81% 30.36 in 10.0 mi SE 8.1 mph - N/A   Clear
11:56 AM 37.4 °F 29.8 °F 32.0 °F 81% 30.37 in 10.0 mi SSE 11.5 mph - N/A   Scattered Clouds
12:16 PM 37.4 °F 32.1 °F 32.0 °F 81% 30.37 in 10.0 mi South 6.9 mph - N/A   Mostly Cloudy
12:36 PM 37.4 °F 32.8 °F 32.0 °F 81% 30.37 in 10.0 mi South 5.8 mph - N/A   Overcast
12:56 PM 37.4 °F 30.8 °F 30.2 °F 75% 30.37 in 10.0 mi SSE 9.2 mph - N/A   Overcast
1:16 PM 39.2 °F 33.6 °F 30.2 °F 70% 30.36 in 10.0 mi SSE 8.1 mph - N/A   Overcast
1:36 PM 39.2 °F 32.5 °F 32.0 °F 75% 30.37 in 10.0 mi SSE 10.4 mph - N/A   Mostly Cloudy
1:56 PM 37.4 °F 32.1 °F 30.2 °F 75% 30.37 in 10.0 mi SE 6.9 mph - N/A   Overcast
2:16 PM 37.4 °F 30.8 °F 30.2 °F 75% 30.37 in 10.0 mi SE 9.2 mph - 0.01 in   Overcast
2:36 PM 35.6 °F 29.9 °F 32.0 °F 87% 30.36 in 10.0 mi ESE 6.9 mph - 0.01 in   Overcast
2:56 PM 37.4 °F 32.1 °F 33.8 °F 87% 30.36 in 10.0 mi SE 6.9 mph - 0.01 in   Overcast
3:16 PM 37.4 °F 31.4 °F 33.8 °F 87% 30.36 in 10.0 mi SE 8.1 mph - N/A   Overcast
3:36 PM 37.4 °F 30.8 °F 33.8 °F 87% 30.36 in 10.0 mi ESE 9.2 mph - 0.01 in   Overcast
3:56 PM 37.4 °F 31.4 °F 33.8 °F 87% 30.36 in 10.0 mi SE 8.1 mph - 0.01 in   Mostly Cloudy
4:16 PM 37.4 °F 31.4 °F 33.8 °F 87% 30.36 in 10.0 mi ESE 8.1 mph - N/A   Overcast
4:36 PM 35.6 °F 29.9 °F 33.8 °F 93% 30.36 in 10.0 mi ESE 6.9 mph - 0.01 in   Overcast
4:56 PM 35.6 °F 29.9 °F 32.0 °F 87% 30.36 in 10.0 mi ESE 6.9 mph - 0.01 in   Overcast
5:16 PM 35.6 °F 30.7 °F 32.0 °F 87% 30.35 in 10.0 mi ESE 5.8 mph - N/A   Overcast
5:36 PM 35.6 °F 29.9 °F 32.0 °F 87% 30.35 in 5.0 mi ESE 6.9 mph - N/A   Mostly Cloudy
5:56 PM 35.6 °F 29.9 °F 32.0 °F 87% 30.35 in 10.0 mi ESE 6.9 mph - N/A   Overcast
6:16 PM 35.6 °F 28.6 °F 32.0 °F 87% 30.35 in 10.0 mi ESE 9.2 mph - 0.01 in   Overcast
6:36 PM 35.6 °F 29.9 °F 32.0 °F 87% 30.34 in 10.0 mi East 6.9 mph - 0.01 in   Overcast
6:56 PM 35.6 °F 29.9 °F 30.2 °F 81% 30.34 in 10.0 mi ESE 6.9 mph - 0.01 in   Overcast
7:16 PM 35.6 °F 30.7 °F 32.0 °F 87% 30.35 in 10.0 mi ESE 5.8 mph - N/A   Overcast
7:36 PM 35.6 °F 30.7 °F 32.0 °F 87% 30.35 in 10.0 mi ESE 5.8 mph - N/A   Overcast
7:56 PM 35.6 °F 29.9 °F 32.0 °F 87% 30.34 in 10.0 mi ESE 6.9 mph - N/A   Overcast
8:16 PM 35.6 °F 29.9 °F 30.2 °F 81% 30.35 in 10.0 mi ESE 6.9 mph - N/A   Overcast
8:36 PM 35.6 °F 29.2 °F 32.0 °F 87% 30.35 in 10.0 mi East 8.1 mph - N/A   Mostly Cloudy
8:56 PM 35.6 °F 29.9 °F 32.0 °F 87% 30.35 in 10.0 mi ESE 6.9 mph - N/A   Mostly Cloudy
9:16 PM 35.6 °F 30.7 °F 30.2 °F 81% 30.35 in 10.0 mi ESE 5.8 mph - N/A   Overcast
9:36 PM 35.6 °F 28.6 °F 32.0 °F 87% 30.35 in 10.0 mi ESE 9.2 mph - N/A   Overcast
9:56 PM 35.6 °F 29.9 °F 32.0 °F 87% 30.35 in 10.0 mi ESE 6.9 mph - N/A   Overcast
10:16 PM 35.6 °F 29.9 °F 32.0 °F 87% 30.35 in 10.0 mi ESE 6.9 mph - N/A   Overcast
10:36 PM 35.6 °F 28.0 °F 32.0 °F 87% 30.35 in 10.0 mi ESE 10.4 mph - N/A   Overcast
10:56 PM 35.6 °F 29.2 °F 32.0 °F 87% 30.35 in 10.0 mi ESE 8.1 mph - N/A   Overcast
11:16 PM 35.6 °F 29.9 °F 30.2 °F 81% 30.36 in 10.0 mi SE 6.9 mph - N/A   Overcast
11:36 PM 35.6 °F 29.2 °F 32.0 °F 87% 30.36 in 10.0 mi ESE 8.1 mph - N/A   Overcast
11:56 PM 35.6 °F 28.6 °F 30.2 °F 81% 30.36 in 10.0 mi ESE 9.2 mph - N/A   Overcast
12:16 AM 35.6 °F 29.2 °F 30.2 °F 81% 30.36 in 10.0 mi ESE 8.1 mph - N/A   Overcast
12:36 AM 35.6 °F 29.9 °F 32.0 °F 87% 30.36 in 10.0 mi ESE 6.9 mph - N/A   Overcast
12:56 AM 35.6 °F 29.9 °F 32.0 °F 87% 30.36 in 10.0 mi ESE 6.9 mph - N/A   Overcast